Location: Newark
(51.5033°N, 0.1199°W)
Time: 09:35:31
(UTC+00:00)

PicSat - Pass Details

Date: 22 September 2019
Orbit: 486 x 499 km, 97.5° (Epoch: 14 October)

Event Time Altitude Azimuth Distance (km) Brightness Sun altitude
Exits shadow 22:20:33 12° 323° (NW) 1,604 ? -34.8°
Drops below altitude 10° 22:20:52 10° 326° (NW) 1,715 ? -34.8°
Sets 22:23:10 0° 338° (NNW) 2,605 ? -35.0°
